Wetterdaten: Dienstag, 30.09.2014
Datum Zeit Temperatur Luftfeuchte Luftdruck Regen Wind Richtung Richtung Taupunkt Windchill Windben
30.09.2014 00:00 11,3 C 91 % 1027,9 hPa 0,0 l/m 0,0 km/h (0 Bft) S-SO 157 9,9 C 22,8 C 0,0 km/h (0 Bft)
30.09.2014 00:10 11,3 C 91 % 1027,8 hPa 0,0 l/m 0,0 km/h (0 Bft) S-SO 157 9,9 C 22,8 C 0,0 km/h (0 Bft)
30.09.2014 00:20 11,3 C 92 % 1027,8 hPa 0,0 l/m 0,0 km/h (0 Bft) S-SO 157 10,0 C 22,8 C 0,0 km/h (0 Bft)
30.09.2014 00:30 11,5 C 92 % 1027,9 hPa 0,0 l/m 0,0 km/h (0 Bft) S-SO 157 10,2 C 22,8 C 0,0 km/h (0 Bft)
30.09.2014 00:40 11,1 C 92 % 1027,9 hPa 0,0 l/m 0,0 km/h (0 Bft) S-SO 157 9,8 C 22,8 C 0,0 km/h (0 Bft)
30.09.2014 00:50 11,6 C 92 % 1027,9 hPa 0,0 l/m 0,0 km/h (0 Bft) S-SO 157 10,3 C 22,8 C 0,0 km/h (0 Bft)
30.09.2014 01:00 11,4 C 92 % 1027,9 hPa 0,0 l/m 0,0 km/h (0 Bft) S-SO 157 10,1 C 22,8 C 0,0 km/h (0 Bft)
30.09.2014 01:10 11,3 C 92 % 1027,7 hPa 0,0 l/m 0,0 km/h (0 Bft) S-SO 157 10,0 C 22,8 C 0,0 km/h (0 Bft)
30.09.2014 01:20 11,3 C 93 % 1027,7 hPa 0,0 l/m 0,0 km/h (0 Bft) S-SO 157 10,2 C 22,8 C 0,0 km/h (0 Bft)
30.09.2014 01:30 11,0 C 92 % 1027,7 hPa 0,0 l/m 0,0 km/h (0 Bft) S-SO 157 9,8 C 22,8 C 0,0 km/h (0 Bft)
30.09.2014 01:40 11,0 C 93 % 1027,7 hPa 0,0 l/m 0,0 km/h (0 Bft) S-SO 157 9,9 C 22,8 C 0,0 km/h (0 Bft)
30.09.2014 01:50 11,4 C 93 % 1027,8 hPa 0,0 l/m 0,0 km/h (0 Bft) S-SO 157 10,3 C 22,8 C 0,0 km/h (0 Bft)
30.09.2014 02:00 11,5 C 93 % 1027,8 hPa 0,0 l/m 0,0 km/h (0 Bft) S-SO 157 10,4 C 22,8 C 0,0 km/h (0 Bft)
30.09.2014 02:10 11,8 C 93 % 1028,0 hPa 0,0 l/m 0,0 km/h (0 Bft) S-SO 157 10,7 C 22,8 C 0,0 km/h (0 Bft)
30.09.2014 02:18 11,6 C 93 % 1028,0 hPa 0,0 l/m 0,0 km/h (0 Bft) S-SO 157 10,5 C 22,8 C 0,0 km/h (0 Bft)
30.09.2014 02:20 11,4 C 93 % 1028,0 hPa 0,0 l/m 0,0 km/h (0 Bft) S-SO 157 10,3 C 22,8 C 0,0 km/h (0 Bft)
30.09.2014 02:30 11,2 C 93 % 1028,0 hPa 0,0 l/m 0,0 km/h (0 Bft) S-SO 157 10,1 C 22,8 C 0,0 km/h (0 Bft)
30.09.2014 02:40 11,2 C 93 % 1028,0 hPa 0,0 l/m 0,0 km/h (0 Bft) S-SO 157 10,1 C 22,8 C 0,0 km/h (0 Bft)
30.09.2014 02:50 11,3 C 93 % 1027,8 hPa 0,0 l/m 0,0 km/h (0 Bft) S-SO 157 10,2 C 22,8 C 0,0 km/h (0 Bft)
30.09.2014 03:00 11,1 C 93 % 1027,8 hPa 0,0 l/m 0,0 km/h (0 Bft) S-SO 157 10,0 C 22,8 C 0,0 km/h (0 Bft)
30.09.2014 03:10 11,0 C 93 % 1027,7 hPa 0,0 l/m 0,0 km/h (0 Bft) S-SO 157 9,9 C 22,8 C 0,0 km/h (0 Bft)
30.09.2014 03:20 10,2 C 93 % 1027,7 hPa 0,0 l/m 0,0 km/h (0 Bft) S-SO 157 9,1 C 22,8 C 0,0 km/h (0 Bft)
30.09.2014 03:30 11,0 C 93 % 1027,8 hPa 0,0 l/m 0,0 km/h (0 Bft) S-SO 157 9,9 C 22,8 C 0,0 km/h (0 Bft)
30.09.2014 03:40 11,2 C 93 % 1027,8 hPa 0,0 l/m 0,0 km/h (0 Bft) S-SO 157 10,1 C 22,8 C 0,0 km/h (0 Bft)
30.09.2014 03:50 11,0 C 93 % 1027,8 hPa 0,0 l/m 0,0 km/h (0 Bft) S-SO 157 9,9 C 22,8 C 0,0 km/h (0 Bft)
30.09.2014 04:00 11,3 C 93 % 1027,8 hPa 0,0 l/m 0,0 km/h (0 Bft) S-SO 157 10,2 C 22,8 C 0,0 km/h (0 Bft)
30.09.2014 04:10 11,3 C 93 % 1027,4 hPa 0,0 l/m 0,0 km/h (0 Bft) S-SO 157 10,2 C 22,8 C 0,0 km/h (0 Bft)
30.09.2014 04:20 11,8 C 94 % 1027,4 hPa 0,0 l/m 0,0 km/h (0 Bft) S-SO 157 10,9 C 22,8 C 0,0 km/h (0 Bft)
30.09.2014 04:30 11,5 C 94 % 1027,6 hPa 0,0 l/m 0,0 km/h (0 Bft) S-SO 157 10,6 C 22,8 C 0,0 km/h (0 Bft)
30.09.2014 04:40 11,3 C 93 % 1027,6 hPa 0,0 l/m 0,0 km/h (0 Bft) S-SO 157 10,2 C 22,8 C 0,0 km/h (0 Bft)
30.09.2014 04:50 11,2 C 93 % 1027,5 hPa 0,0 l/m 0,0 km/h (0 Bft) S-SO 157 10,1 C 22,8 C 0,0 km/h (0 Bft)
30.09.2014 05:00 11,3 C 93 % 1027,5 hPa 0,0 l/m 0,0 km/h (0 Bft) S-SO 157 10,2 C 22,8 C 0,0 km/h (0 Bft)
30.09.2014 05:10 11,3 C 93 % 1027,8 hPa 0,0 l/m 0,0 km/h (0 Bft) S-SO 157 10,2 C 22,8 C 0,0 km/h (0 Bft)
30.09.2014 05:20 11,0 C 93 % 1027,9 hPa 0,0 l/m 0,0 km/h (0 Bft) S-SO 157 9,9 C 22,8 C 0,0 km/h (0 Bft)
30.09.2014 05:30 11,0 C 93 % 1027,9 hPa 0,0 l/m 0,0 km/h (0 Bft) S-SO 157 9,9 C 22,8 C 0,0 km/h (0 Bft)
30.09.2014 05:40 10,8 C 93 % 1027,9 hPa 0,0 l/m 0,0 km/h (0 Bft) S-SO 157 9,7 C 22,8 C 0,0 km/h (0 Bft)
30.09.2014 05:50 10,7 C 93 % 1027,8 hPa 0,0 l/m 0,0 km/h (0 Bft) S-SO 157 9,6 C 22,8 C 0,0 km/h (0 Bft)
30.09.2014 06:00 10,7 C 93 % 1027,8 hPa 0,0 l/m 0,0 km/h (0 Bft) S-SO 157 9,6 C 22,8 C 0,0 km/h (0 Bft)
30.09.2014 06:10 10,8 C 93 % 1027,7 hPa 0,0 l/m 0,0 km/h (0 Bft) S-SO 157 9,7 C 22,8 C 0,0 km/h (0 Bft)
30.09.2014 06:20 11,1 C 93 % 1027,7 hPa 0,0 l/m 0,0 km/h (0 Bft) S-SO 157 10,0 C 22,8 C 0,0 km/h (0 Bft)
30.09.2014 06:30 11,4 C 93 % 1027,9 hPa 0,0 l/m 0,0 km/h (0 Bft) S-SO 157 10,3 C 22,8 C 0,0 km/h (0 Bft)
30.09.2014 06:40 11,2 C 93 % 1027,9 hPa 0,0 l/m 0,0 km/h (0 Bft) S-SO 157 10,1 C 22,8 C 0,0 km/h (0 Bft)
30.09.2014 06:50 11,3 C 93 % 1027,9 hPa 0,0 l/m 0,0 km/h (0 Bft) S-SO 157 10,2 C 22,8 C 0,0 km/h (0 Bft)
30.09.2014 07:00 11,2 C 93 % 1027,9 hPa 0,0 l/m 0,0 km/h (0 Bft) S-SO 157 10,1 C 22,8 C 0,0 km/h (0 Bft)
30.09.2014 07:10 11,0 C 93 % 1027,9 hPa 0,0 l/m 0,0 km/h (0 Bft) S-SO 157 9,9 C 22,8 C 0,0 km/h (0 Bft)
30.09.2014 07:20 11,1 C 94 % 1027,9 hPa 0,0 l/m 0,0 km/h (0 Bft) S-SO 157 10,2 C 22,8 C 0,0 km/h (0 Bft)
30.09.2014 07:30 11,3 C 94 % 1027,7 hPa 0,0 l/m 0,0 km/h (0 Bft) S-SO 157 10,4 C 22,8 C 0,0 km/h (0 Bft)
30.09.2014 07:40 11,3 C 94 % 1027,7 hPa 0,0 l/m 0,0 km/h (0 Bft) S-SO 157 10,4 C 22,8 C 0,0 km/h (0 Bft)
30.09.2014 07:50 11,4 C 94 % 1027,8 hPa 0,0 l/m 0,0 km/h (0 Bft) S-SO 157 10,5 C 22,8 C 0,0 km/h (0 Bft)
30.09.2014 08:00 11,6 C 94 % 1027,8 hPa 0,0 l/m 0,0 km/h (0 Bft) S-SO 157 10,7 C 22,8 C 0,0 km/h (0 Bft)
30.09.2014 08:08 11,8 C 94 % 1028,0 hPa 0,0 l/m 0,0 km/h (0 Bft) S-SO 157 10,9 C 22,8 C 0,0 km/h (0 Bft)
30.09.2014 08:20 12,2 C 94 % 1027,9 hPa 0,0 l/m 0,0 km/h (0 Bft) S-SO 157 11,3 C 22,8 C 0,0 km/h (0 Bft)
30.09.2014 08:30 12,2 C 94 % 1027,9 hPa 0,0 l/m 0,0 km/h (0 Bft) S-SO 157 11,3 C 22,8 C 0,0 km/h (0 Bft)
30.09.2014 08:40 12,3 C 94 % 1027,9 hPa 0,0 l/m 0,0 km/h (0 Bft) S-SO 157 11,4 C 22,8 C 0,0 km/h (0 Bft)
30.09.2014 08:50 12,6 C 94 % 1028,0 hPa 0,0 l/m 0,0 km/h (0 Bft) S-SO 157 11,7 C 22,8 C 0,0 km/h (0 Bft)
30.09.2014 09:00 13,5 C 93 % 1028,0 hPa 0,0 l/m 0,0 km/h (0 Bft) S-SO 157 12,4 C 22,8 C 0,0 km/h (0 Bft)
30.09.2014 09:10 14,0 C 92 % 1028,1 hPa 0,0 l/m 0,0 km/h (0 Bft) S-SO 157 12,7 C 22,8 C 0,0 km/h (0 Bft)
30.09.2014 09:20 14,7 C 92 % 1028,1 hPa 0,0 l/m 0,0 km/h (0 Bft) S-SO 157 13,4 C 22,8 C 0,0 km/h (0 Bft)
30.09.2014 09:30 14,8 C 92 % 1028,2 hPa 0,0 l/m 0,0 km/h (0 Bft) S-SO 157 13,5 C 22,8 C 0,0 km/h (0 Bft)
30.09.2014 09:40 14,7 C 92 % 1028,2 hPa 0,0 l/m 0,0 km/h (0 Bft) S-SO 157 13,4 C 22,8 C 0,0 km/h (0 Bft)
30.09.2014 09:50 14,7 C 91 % 1028,3 hPa 0,0 l/m 0,0 km/h (0 Bft) S-SO 157 13,2 C 22,8 C 0,0 km/h (0 Bft)
30.09.2014 10:00 14,9 C 91 % 1028,3 hPa 0,0 l/m 0,0 km/h (0 Bft) S-SO 157 13,4 C 22,8 C 0,0 km/h (0 Bft)
30.09.2014 10:10 14,9 C 91 % 1028,5 hPa 0,0 l/m 0,0 km/h (0 Bft) S-SO 157 13,4 C 22,8 C 0,0 km/h (0 Bft)
30.09.2014 10:20 15,1 C 89 % 1028,5 hPa 0,0 l/m 0,0 km/h (0 Bft) S-SO 157 13,3 C 22,8 C 0,0 km/h (0 Bft)
30.09.2014 10:30 15,6 C 89 % 1028,3 hPa 0,0 l/m 0,0 km/h (0 Bft) S-SO 157 13,8 C 22,8 C 0,0 km/h (0 Bft)
30.09.2014 10:40 15,9 C 89 % 1028,3 hPa 0,0 l/m 0,0 km/h (0 Bft) S-SO 157 14,1 C 22,8 C 0,0 km/h (0 Bft)
30.09.2014 10:50 16,1 C 89 % 1028,5 hPa 0,0 l/m 0,0 km/h (0 Bft) S-SO 157 14,3 C 22,8 C 0,0 km/h (0 Bft)
30.09.2014 11:00 16,4 C 88 % 1028,5 hPa 0,0 l/m 0,0 km/h (0 Bft) S-SO 157 14,4 C 22,8 C 0,0 km/h (0 Bft)
30.09.2014 11:08 16,7 C 88 % 1028,6 hPa 0,0 l/m 0,0 km/h (0 Bft) S-SO 157 14,7 C 22,8 C 0,0 km/h (0 Bft)
30.09.2014 11:20 17,3 C 86 % 1028,6 hPa 0,0 l/m 0,0 km/h (0 Bft) S-SO 157 14,9 C 22,8 C 0,0 km/h (0 Bft)
30.09.2014 11:30 17,3 C 86 % 1028,6 hPa 0,0 l/m 0,0 km/h (0 Bft) S-SO 157 14,9 C 22,8 C 0,0 km/h (0 Bft)
30.09.2014 11:40 17,8 C 84 % 1028,6 hPa 0,0 l/m 0,0 km/h (0 Bft) S-SO 157 15,1 C 22,8 C 0,0 km/h (0 Bft)
30.09.2014 11:50 17,7 C 80 % 1028,6 hPa 0,0 l/m 0,0 km/h (0 Bft) S-SO 157 14,2 C 22,8 C 0,0 km/h (0 Bft)
30.09.2014 12:00 17,8 C 78 % 1028,6 hPa 0,0 l/m 0,0 km/h (0 Bft) S-SO 157 13,9 C 22,8 C 0,0 km/h (0 Bft)
30.09.2014 12:10 17,8 C 74 % 1028,5 hPa 0,0 l/m 0,0 km/h (0 Bft) S-SO 157 13,1 C 22,8 C 0,0 km/h (0 Bft)
30.09.2014 12:20 19,0 C 75 % 1028,5 hPa 0,0 l/m 0,0 km/h (0 Bft) S-SO 157 14,5 C 22,8 C 0,0 km/h (0 Bft)
30.09.2014 12:30 19,8 C 73 % 1028,5 hPa 0,0 l/m 0,0 km/h (0 Bft) S-SO 157 14,8 C 22,8 C 0,0 km/h (0 Bft)
30.09.2014 12:40 20,1 C 65 % 1028,5 hPa 0,0 l/m 0,0 km/h (0 Bft) S-SO 157 13,3 C 22,8 C 0,0 km/h (0 Bft)
30.09.2014 12:50 21,4 C 58 % 1028,7 hPa 0,0 l/m 0,0 km/h (0 Bft) S-SO 157 12,8 C 22,8 C 0,0 km/h (0 Bft)
30.09.2014 13:00 21,0 C 58 % 1028,7 hPa 0,0 l/m 0,0 km/h (0 Bft) S-SO 157 12,4 C 22,8 C 0,0 km/h (0 Bft)
30.09.2014 13:10 20,7 C 62 % 1028,6 hPa 0,0 l/m 0,0 km/h (0 Bft) S-SO 157 13,2 C 22,8 C 0,0 km/h (0 Bft)
30.09.2014 13:20 19,9 C 60 % 1028,6 hPa 0,0 l/m 0,0 km/h (0 Bft) S-SO 157 11,9 C 22,8 C 0,0 km/h (0 Bft)
30.09.2014 13:30 20,4 C 63 % 1028,7 hPa 0,0 l/m 0,0 km/h (0 Bft) S-SO 157 13,1 C 22,8 C 0,0 km/h (0 Bft)
30.09.2014 13:40 20,3 C 62 % 1028,7 hPa 0,0 l/m 0,0 km/h (0 Bft) S-SO 157 12,8 C 22,8 C 0,0 km/h (0 Bft)
30.09.2014 13:50 20,2 C 61 % 1028,6 hPa 0,0 l/m 0,0 km/h (0 Bft) S-SO 157 12,4 C 22,8 C 0,0 km/h (0 Bft)
30.09.2014 14:00 19,8 C 60 % 1028,6 hPa 0,0 l/m 0,0 km/h (0 Bft) S-SO 157 11,8 C 22,8 C 0,0 km/h (0 Bft)
30.09.2014 14:08 20,3 C 59 % 1028,3 hPa 0,0 l/m 0,0 km/h (0 Bft) S-SO 157 12,0 C 22,8 C 0,0 km/h (0 Bft)
30.09.2014 14:20 21,3 C 58 % 1028,4 hPa 0,0 l/m 0,0 km/h (0 Bft) S-SO 157 12,7 C 22,8 C 0,0 km/h (0 Bft)
30.09.2014 14:30 20,5 C 59 % 1028,4 hPa 0,0 l/m 0,0 km/h (0 Bft) S-SO 157 12,2 C 22,8 C 0,0 km/h (0 Bft)
30.09.2014 14:40 20,5 C 59 % 1028,4 hPa 0,0 l/m 0,0 km/h (0 Bft) S-SO 157 12,2 C 22,8 C 0,0 km/h (0 Bft)
30.09.2014 14:50 20,4 C 59 % 1028,5 hPa 0,0 l/m 0,0 km/h (0 Bft) S-SO 157 12,1 C 22,8 C 0,0 km/h (0 Bft)
30.09.2014 15:00 20,4 C 59 % 1028,5 hPa 0,0 l/m 0,0 km/h (0 Bft) S-SO 157 12,1 C 22,8 C 0,0 km/h (0 Bft)
30.09.2014 15:10 20,2 C 59 % 1028,4 hPa 0,0 l/m 0,0 km/h (0 Bft) S-SO 157 11,9 C 22,8 C 0,0 km/h (0 Bft)
30.09.2014 15:20 20,7 C 59 % 1028,4 hPa 0,0 l/m 0,0 km/h (0 Bft) S-SO 157 12,4 C 22,8 C 0,0 km/h (0 Bft)
30.09.2014 15:30 20,4 C 59 % 1028,3 hPa 0,0 l/m 0,0 km/h (0 Bft) S-SO 157 12,1 C 22,8 C 0,0 km/h (0 Bft)
30.09.2014 15:40 19,6 C 63 % 1028,3 hPa 0,0 l/m 0,0 km/h (0 Bft) S-SO 157 12,4 C 22,8 C 0,0 km/h (0 Bft)
30.09.2014 15:50 19,3 C 63 % 1028,2 hPa 0,0 l/m 0,0 km/h (0 Bft) S-SO 157 12,1 C 22,8 C 0,0 km/h (0 Bft)
30.09.2014 16:00 19,2 C 65 % 1028,2 hPa 0,0 l/m 0,0 km/h (0 Bft) S-SO 157 12,5 C 22,8 C 0,0 km/h (0 Bft)
30.09.2014 16:10 18,7 C 68 % 1028,2 hPa 0,0 l/m 0,0 km/h (0 Bft) S-SO 157 12,7 C 22,8 C 0,0 km/h (0 Bft)
30.09.2014 16:20 18,5 C 69 % 1028,2 hPa 0,0 l/m 0,0 km/h (0 Bft) S-SO 157 12,7 C 22,8 C 0,0 km/h (0 Bft)
30.09.2014 16:30 18,1 C 71 % 1028,1 hPa 0,0 l/m 0,0 km/h (0 Bft) S-SO 157 12,8 C 22,8 C 0,0 km/h (0 Bft)
30.09.2014 16:40 17,7 C 73 % 1028,1 hPa 0,0 l/m 0,0 km/h (0 Bft) S-SO 157 12,8 C 22,8 C 0,0 km/h (0 Bft)
30.09.2014 16:50 17,5 C 73 % 1028,1 hPa 0,0 l/m 0,0 km/h (0 Bft) S-SO 157 12,6 C 22,8 C 0,0 km/h (0 Bft)
30.09.2014 17:00 17,4 C 75 % 1028,1 hPa 0,0 l/m 0,0 km/h (0 Bft) S-SO 157 12,9 C 22,8 C 0,0 km/h (0 Bft)
30.09.2014 17:08 16,7 C 78 % 1028,1 hPa 0,0 l/m 0,0 km/h (0 Bft) S-SO 157 12,8 C 22,8 C 0,0 km/h (0 Bft)
30.09.2014 17:20 16,4 C 80 % 1028,1 hPa 0,0 l/m 0,0 km/h (0 Bft) S-SO 157 12,9 C 22,8 C 0,0 km/h (0 Bft)
30.09.2014 17:30 16,4 C 80 % 1028,1 hPa 0,0 l/m 0,0 km/h (0 Bft) S-SO 157 12,9 C 22,8 C 0,0 km/h (0 Bft)
30.09.2014 17:40 16,4 C 80 % 1028,1 hPa 0,0 l/m 0,0 km/h (0 Bft) S-SO 157 12,9 C 22,8 C 0,0 km/h (0 Bft)
30.09.2014 17:50 16,1 C 80 % 1028,0 hPa 0,0 l/m 0,0 km/h (0 Bft) S-SO 157 12,6 C 22,8 C 0,0 km/h (0 Bft)
30.09.2014 18:00 15,7 C 83 % 1028,0 hPa 0,0 l/m 0,0 km/h (0 Bft) S-SO 157 12,8 C 22,8 C 0,0 km/h (0 Bft)
30.09.2014 18:10 15,5 C 85 % 1027,8 hPa 0,0 l/m 0,0 km/h (0 Bft) S-SO 157 13,0 C 22,8 C 0,0 km/h (0 Bft)
30.09.2014 18:20 15,3 C 85 % 1027,8 hPa 0,0 l/m 0,0 km/h (0 Bft) S-SO 157 12,8 C 22,8 C 0,0 km/h (0 Bft)
30.09.2014 18:30 15,1 C 87 % 1028,1 hPa 0,0 l/m 0,0 km/h (0 Bft) S-SO 157 13,0 C 22,8 C 0,0 km/h (0 Bft)
30.09.2014 18:40 14,9 C 89 % 1028,1 hPa 0,0 l/m 0,0 km/h (0 Bft) S-SO 157 13,1 C 22,8 C 0,0 km/h (0 Bft)
30.09.2014 18:50 14,8 C 91 % 1028,0 hPa 0,0 l/m 0,0 km/h (0 Bft) S-SO 157 13,3 C 22,8 C 0,0 km/h (0 Bft)
30.09.2014 19:00 14,7 C 92 % 1028,0 hPa 0,0 l/m 0,0 km/h (0 Bft) S-SO 157 13,4 C 22,8 C 0,0 km/h (0 Bft)
30.09.2014 19:10 14,7 C 92 % 1028,2 hPa 0,0 l/m 0,0 km/h (0 Bft) S-SO 157 13,4 C 22,8 C 0,0 km/h (0 Bft)
30.09.2014 19:20 14,7 C 92 % 1028,2 hPa 0,0 l/m 0,0 km/h (0 Bft) S-SO 157 13,4 C 22,8 C 0,0 km/h (0 Bft)
30.09.2014 19:30 14,7 C 93 % 1028,4 hPa 0,0 l/m 0,0 km/h (0 Bft) S-SO 157 13,6 C 22,8 C 0,0 km/h (0 Bft)
30.09.2014 19:40 14,7 C 93 % 1028,4 hPa 0,0 l/m 0,0 km/h (0 Bft) S-SO 157 13,6 C 22,8 C 0,0 km/h (0 Bft)
30.09.2014 19:50 14,7 C 93 % 1028,2 hPa 0,0 l/m 0,0 km/h (0 Bft) S-SO 157 13,6 C 22,8 C 0,0 km/h (0 Bft)
30.09.2014 20:00 14,6 C 93 % 1028,2 hPa 0,0 l/m 0,0 km/h (0 Bft) S-SO 157 13,5 C 22,8 C 0,0 km/h (0 Bft)
30.09.2014 20:08 14,4 C 93 % 1028,4 hPa 0,0 l/m 0,0 km/h (0 Bft) S-SO 157 13,3 C 22,8 C 0,0 km/h (0 Bft)
30.09.2014 20:20 14,3 C 93 % 1028,6 hPa 0,0 l/m 0,0 km/h (0 Bft) S-SO 157 13,2 C 22,8 C 0,0 km/h (0 Bft)
30.09.2014 20:30 14,2 C 94 % 1028,6 hPa 0,0 l/m 0,0 km/h (0 Bft) S-SO 157 13,2 C 22,8 C 0,0 km/h (0 Bft)
30.09.2014 20:40 14,2 C 94 % 1028,6 hPa 0,0 l/m 0,0 km/h (0 Bft) S-SO 157 13,2 C 22,8 C 0,0 km/h (0 Bft)
30.09.2014 20:50 14,1 C 94 % 1028,5 hPa 0,0 l/m 0,0 km/h (0 Bft) S-SO 157 13,1 C 22,8 C 0,0 km/h (0 Bft)
30.09.2014 21:00 14,1 C 94 % 1028,5 hPa 0,0 l/m 0,0 km/h (0 Bft) S-SO 157 13,1 C 22,8 C 0,0 km/h (0 Bft)
30.09.2014 21:10 14,0 C 94 % 1028,6 hPa 0,0 l/m 0,0 km/h (0 Bft) S-SO 157 13,0 C 22,8 C 0,0 km/h (0 Bft)
30.09.2014 21:20 14,0 C 94 % 1028,6 hPa 0,0 l/m 0,0 km/h (0 Bft) S-SO 157 13,0 C 22,8 C 0,0 km/h (0 Bft)
30.09.2014 21:30 13,7 C 94 % 1028,3 hPa 0,0 l/m 0,0 km/h (0 Bft) S-SO 157 12,8 C 22,8 C 0,0 km/h (0 Bft)
30.09.2014 21:40 13,7 C 94 % 1028,3 hPa 0,0 l/m 0,0 km/h (0 Bft) S-SO 157 12,8 C 22,8 C 0,0 km/h (0 Bft)
30.09.2014 21:50 13,7 C 94 % 1028,6 hPa 0,0 l/m 0,0 km/h (0 Bft) S-SO 157 12,8 C 22,8 C 0,0 km/h (0 Bft)
30.09.2014 22:00 13,7 C 94 % 1028,6 hPa 0,0 l/m 0,0 km/h (0 Bft) S-SO 157 12,8 C 22,8 C 0,0 km/h (0 Bft)
30.09.2014 22:10 13,7 C 94 % 1028,6 hPa 0,0 l/m 0,0 km/h (0 Bft) S-SO 157 12,8 C 22,8 C 0,0 km/h (0 Bft)
30.09.2014 22:20 13,6 C 94 % 1028,6 hPa 0,0 l/m 0,0 km/h (0 Bft) S-SO 157 12,7 C 22,8 C 0,0 km/h (0 Bft)
30.09.2014 22:30 13,4 C 94 % 1028,4 hPa 0,0 l/m 0,0 km/h (0 Bft) S-SO 157 12,5 C 22,8 C 0,0 km/h (0 Bft)
30.09.2014 22:40 13,3 C 94 % 1028,4 hPa 0,0 l/m 0,0 km/h (0 Bft) S-SO 157 12,4 C 22,8 C 0,0 km/h (0 Bft)
30.09.2014 22:50 13,2 C 94 % 1028,5 hPa 0,0 l/m 0,0 km/h (0 Bft) S-SO 157 12,3 C 22,8 C 0,0 km/h (0 Bft)
30.09.2014 23:00 13,2 C 94 % 1028,5 hPa 0,0 l/m 0,0 km/h (0 Bft) S-SO 157 12,3 C 22,8 C 0,0 km/h (0 Bft)
30.09.2014 23:08 13,2 C 94 % 1028,4 hPa 0,0 l/m 0,0 km/h (0 Bft) S-SO 157 12,3 C 22,8 C 0,0 km/h (0 Bft)
30.09.2014 23:20 13,2 C 94 % 1028,4 hPa 0,0 l/m 0,0 km/h (0 Bft) S-SO 157 12,3 C 22,8 C 0,0 km/h (0 Bft)
30.09.2014 23:30 13,2 C 94 % 1028,4 hPa 0,0 l/m 0,0 km/h (0 Bft) S-SO 157 12,3 C 22,8 C 0,0 km/h (0 Bft)
30.09.2014 23:40 13,1 C 94 % 1028,4 hPa 0,0 l/m 0,0 km/h (0 Bft) S-SO 157 12,2 C 22,8 C 0,0 km/h (0 Bft)
30.09.2014 23:50 13,2 C 94 % 1028,5 hPa 0,0 l/m 0,0 km/h (0 Bft) S-SO 157 12,3 C 22,8 C 0,0 km/h (0 Bft)
_ Min-Zeit 03:20 14:20 04:20 - 23:50 - - 03:20 23:50 23:50
Minimum _ 10,2 C 58 % 1027,4 hPa - 0,0 km/h (0 Bft) - - 9,1 C 22,8 C 0,0 km/h (0 Bft)
_ Max-Zeit 12:50 23:50 13:40 23:50 23:50 - - 11:40 23:50 23:50
Maximum _ 21,4 C 94 % 1028,7 hPa 0,0 l/m 0,0 km/h
S-SO (0 Bft)
- - 15,1 C 22,8 C 0,0 km/h
S-SO (0 Bft)
Durchschnitt _ 14,5 C 86 % 1028,2 hPa #0,0 l/m 0,0 km/h (0 Bft) - - - 12,0 C 22,8 C 0,0 km/h (0 Bft)